Location: Miss�
(46.9484°N, 0.1922°W)
Time: 08:52:57
(UTC+00:00)

Cosmos 2360 Rocket - Pass Details

Date: 02 March 2021
Orbit: 832 x 846 km, 71.0° (Epoch: 13 April)

Event Time Altitude Azimuth Distance (km) Brightness Sun altitude
Rises 20:36:20 0° 234° (SW) 3,381 5.7 -29.0°
Reaches altitude 10° 20:38:59 10° 243° (WSW) 2,453 5.0 -29.4°
Maximum altitude 20:44:05 34° 308° (NW) 1,351 3.7 -30.2°
Drops below altitude 10° 20:49:14 10° 13° (NNE) 2,474 4.7 -31.0°
Sets 20:51:56 0° 23° (NNE) 3,414 5.4 -31.4°
